Find Starlink 3104

NORAD ID: 49150 Int'l Des: 2021-082 Owner: SPXS Country: US Constellation: starlink decayed
LEOCIRCULAR
Vis

Historical Track — 19. Apr. 2025

3D-Globus wird geladen...

Über Starlink 3104

Beschreibung wird geladen...

Höhenverlauf

Loading altitude history...

Zweizeiliger Elementsatz

1 49150U 21082W 25109.22900718 .17968081 44585-5 27926-3 0 9998
2 49150 69.9786 18.4731 0011086 248.2116 214.3536 16.47722106198929
Epoch: 19. Apr. 2025 • Age: 9171 hours

Aktueller Status

Position data unavailable
Startdatum 14. Sept. 2021
Alter 4.6 years
Verglühungsdatum 19. Apr. 2025
Typ internet

Technische Details

Klassifizierung Payload
Masse 297.00 kg
Trockenmasse 275.00 kg
Gesamtmasse 297.00 kg
Länge 0.20 m
Durchmesser 2.80 m
Spannweite 9.00 m
Form Box + pan
Hersteller SPXS
Bus-Typ Starlink
Phasenstatus Unknown Transfer Status
Besitzer/Staat SPXS/US

Most Searched